Find Starlink 35130

NORAD ID: 65740 Int'l Des: 2025-216 Owner: SPXS Country: US Constellation: starlink operational
LEOCIRCULAR

Current View

Loading 3D Globe...

About Starlink 35130

Starlink 35130 (NORAD 65740) is a starlink constellation satellite (v2 mini) launched Sep 25, 2025 by SPXS of US. It operates in LEO, CIRCULAR orbit with a mass of 575.00 kg.

Upcoming Passes

Passes for default location (London). Set your location on the main map for personalized predictions.

Altitude History

Loading altitude history...

Two-Line Element Set

1 65740U 25216G 26265.03373212 .00008325 00000-0 25724-3 0 9991
2 65740 53.1574 138.8486 0001026 103.8985 256.2132 15.34400751 56686
Epoch: Sep 22, 2026 • Age: 15 hours

Current Status

Altitude 476.1 km
Apogee / Perigee N/A
Velocity 7.63 km/s
Sub-Earth Point -39.12°S, 146.25°W
Launch Date Sep 25, 2025
Age 0.9 years
Type internet

Technical Details

Classification Payload
Mass 575.00 kg
Dry Mass 530.00 kg
Length 0.30 m
Span 29.00 m
Shape ? Box + pan
Manufacturer SPXS
Bus Type Starlink V2MO
Phase Status In Orbit
Owner/State SPXS/US

Most Searched